Regional Weather Roundup
Issued by NWS

Home | Current Version | Previous Version | Text Only | Print | Product List | Glossary On
Versions: 1 2 3 4 5 6 7 8 9 10 11 12 13 14 15 16 17 18 19 20 21 22 23 24 25 26 27 28 29 30 31 32 33 34 35 36 37 38 39 40 41 42 43 44 45 46 47 48 49 50
000
ASUS44 KFWD 202215
RWRTX
NORTH TEXAS HOURLY WEATHER ROUNDUP
NATIONAL WEATHER SERVICE FORT WORTH TX
500 PM CDT SUN APR 20 2014

NOTE: "FAIR" INDICATES FEW OR NO CLOUDS BELOW 12,000 FEET WITH NO
SIGNIFICANT WEATHER AND/OR OBSTRUCTIONS TO VISIBILITY.

TXZ118-119-202300-
DALLAS/FORT WORTH METROPLEX

CITY           SKY/WX    TMP DP  RH WIND       PRES   REMARKS
DFW AIRPORT    CLOUDY    74  53  48 S13       30.04F
DALLAS LOVE    CLOUDY    75  51  43 S9        30.04F
FTW MEACHAM    CLOUDY    73  57  57 S14       30.02F
DAL-EXECUTIVE  CLOUDY    76  56  49 SE7       30.04F
FTW-ALLIANCE   CLOUDY    71  51  49 SE10      30.03F
FTW-NAS-JRB    CLOUDY    76  55  48 SE13G18   30.07F
FTW-SPINKS     CLOUDY    73  57  56 SE8       30.04F
ARLINGTON      CLOUDY    75  55  49 SE12G17   30.03F
GRAND PRAIRIE  CLOUDY    73  54  49 SE5       30.06F
ADDISON        CLOUDY    73  48  40 S13G20    30.05F
LANCASTER      CLOUDY    74  50  42 S10       30.06F
$$

TXZ091>094-102>105-117-120-121-131>134-202300-
NORTH CENTRAL TEXAS

CITY           SKY/WX    TMP DP  RH WIND       PRES   REMARKS
SHRMAN/DENISON CLOUDY    74  49  41 S10       30.07R
GAINESVILLE    LGT RAIN  64  58  83 W8        30.10R
BOWIE          RAIN      62  61  96 N7        30.08S
BRIDGEPORT     TSTM      64  58  83 NW9       30.08R
DECATUR        LGT RAIN  66  57  72 CALM      30.05S
DENTON         CLOUDY    72  51  47 SE9       30.04F
MCKINNEY       CLOUDY    73  51  46 S16       30.05F
GREENVILLE     CLOUDY    75  54  46 S8        30.06F
ROCKWALL       CLOUDY    74  55  51 E8        30.05F
TERRELL        CLOUDY    74  51  44 SE13      30.06F
WAXAHACHIE     CLOUDY    73  53  48 S12       30.05F
CLEBURNE       CLOUDY    73  59  60 S14G20    30.05F
GRANBURY       CLOUDY    74  59  60 S9        30.05R
$$

TXZ083>090-098>101-113>116-127>130-139>142-154-155-202300-
WESTERN NORTH TEXAS

CITY           SKY/WX    TMP DP  RH WIND       PRES   REMARKS
WICHITA FALLS  CLOUDY    64  61  90 SE15      30.00F
WF-KICKAPOO    CLOUDY    65  61  84 SE14      30.03F
VERNON         MOSUNNY   72  59  62 SE18G24   29.99F
ABILENE        CLOUDY    67  66  97 SE9       30.03F
ABILENE-DYESS  CLOUDY    68  63  83 SE9       30.01F
BRECKENRIDGE   RAIN      67  64  93 CALM      30.04F
GRAHAM         RAIN      64  62  92 E3        30.03F
MINERAL WELLS  RAIN      64  62  93 CALM      30.03F FOG
STEPHENVILLE   CLOUDY    69  59  70 S6        30.07F
COMANCHE       CLOUDY    69  61  77 S6        30.04F
BROWNWOOD      LGT RAIN  66  64  94 SW6       30.04F VSB 1
COLEMAN        LGT RAIN  65  64  94 S7        30.04F
$$

TXZ143>147-156>162-174-175-202300-
CENTRAL TEXAS

CITY           SKY/WX    TMP DP  RH WIND       PRES   REMARKS
WACO           CLOUDY    77  58  51 S14       30.03F
WACO-TSTC      PTSUNNY   77  55  47 S8        30.03F
WACO-MCGREGOR  CLOUDY    75  55  50 S12       30.05F
HILLSBORO      PTSUNNY   75  55  49 S12G17    30.04F
CORSICANA      CLOUDY    78  58  49 S7        30.06F
MEXIA          PTSUNNY   76  57  51 SE9G18    30.04F
HEARNE         MOSUNNY   81  55  41 SE14      30.05F
CAMERON        MOSUNNY   81  57  43 S13G24    30.04F
TEMPLE         CLOUDY    73  55  53 S14       30.06S
KILLEEN        CLOUDY    72  61  68 SE10      30.05F
KILLEEN-SKYLRK MOSUNNY  N/A N/A N/A S10       30.04F
FORT HOOD      CLOUDY    74  60  61 S8        30.04F
GATESVILLE     CLOUDY    72  61  68 S8        30.06F
HAMILTON       CLOUDY    71  60  68 SE16      30.05F
LAMPASAS       CLOUDY    71  64  78 S6        30.04F
$$

TXZ095>097-106>112-122>126-135>138-148>153-164>167-202300-
EAST TEXAS

CITY           SKY/WX    TMP DP  RH WIND       PRES   REMARKS
PARIS          CLOUDY    73  55  53 S8        30.07F
SULPHUR SPRNGS LGT RAIN  76  55  48 SW9       30.09S
CLARKSVILLE    CLOUDY    78  55  45 CALM      30.07R
MOUNT PLEASANT CLOUDY    76  55  49 S8        30.08F
GILMER         CLOUDY    79  57  47 S7        30.08F
MINEOLA        PTSUNNY   75  55  50 SW6       30.09S
TYLER          CLOUDY    77  55  46 SW7       30.07F
LONGVIEW       PTSUNNY   78  55  44 S9        30.06F
MARSHALL       PTSUNNY   78  54  43 S6        30.08F
ATHENS         LGT RAIN  73  55  53 S8        30.04F
PALESTINE      PTSUNNY   79  54  41 S9        30.08F
JACKSONVILLE   CLOUDY    78  49  36 S8        30.09S
HENDERSON      PTSUNNY   79  51  38 S6        30.08S
NACOGDOCHES    MOSUNNY   81  55  41 S14       30.06F
LUFKIN         SUNNY     83  53  35 S12       30.06F
$$

SUPPLEMENTAL OBSERVATIONS (CENTRAL)

CITY           SKY/WX    TMP DP  RH WIND       PRES   REMARKS
LAKE TEXOMA      N/A     73  46  38 S9          N/A
PAT MAYSE LAKE   N/A     73  54  49 SE10        N/A
GREENVILLE       N/A     75  55  50 S10         N/A
CEDAR HILL       N/A     75  54  46 S8          N/A
ATHENS           N/A     77  55  47 S12         N/A
PALESTINE        N/A     79  55  44 S3G12       N/A
LAKE LIMESTONE   N/A     81  55  41 S7G18       N/A
MCGREGOR         N/A     75  57  53 S9G17       N/A
TEMPLE           N/A     75  57  53 S12G20      N/A
$$

SUPPLEMENTAL OBSERVATIONS (WEST)

CITY           SKY/WX    TMP DP  RH WIND       PRES   REMARKS
MILLERS CREEK    N/A     72  59  64 S13         N/A
POSSUM KINGDOM   N/A     66  63  88 E2          N/A
GRANBURY         N/A     73  59  60 S13         N/A
COMANCHE         N/A     68  63  83 S10         N/A
HAMBY            N/A     66  61  82 S8          N/A
IVIE RESERVOIR   N/A     68  64  88 SE5         N/A
COLORADO BEND    N/A     66  63  88 S7G17       N/A
$$

SUPPLEMENTAL OBSERVATIONS (EAST)

CITY           SKY/WX    TMP DP  RH WIND       PRES   REMARKS
TEXARKANA        N/A     77  54  44 S3          N/A
LINDEN           N/A     79  57  47 S3          N/A
LUFKIN           N/A     82  54  36 MISG        N/A
N SABINE NF      N/A     82  57  42 MISG        N/A
$$

SUPPLEMENTAL OBSERVATIONS ARE A COLLECTION OF AUTOMATED INSTRUMENTS
THAT ARE MAINTAINED BY A VARIETY OF FEDERAL AND STATE AGENCIES.
CERTAIN ELEMENTS...SUCH AS HUMIDITY VALUES AND SUSTAINED WIND
SPEEDS...MAY BE APPROXIMATED.




USA.gov is the U.S. government's official web portal to all federal, state and local government web resources and services.